ARIANE 5 R/B - Orbit

View from above orbital plane
View from above orbital plane
View from above satellite
View from above satellite

Ground track
Ground track

The orbit data is extracted from the following two-line orbital elements,

1 28379U 04027B   13141.56395006 -.00000201  00000-0  67839-3 0  4889
2 28379 006.7038 108.5746 7298899 166.0447 009.6703 02.07907983 67188
Epoch (UTC): 21 May 2013 13:32:05
Eccentricity: 0.7298899
inclination: 6.7038°
perigee height: 626 km
apogee height: 38479 km
right ascension of ascending node: 108.5746°
argument of perigee: 166.0447°
revolutions per day: 2.07907983
mean anomaly at epoch: 9.6703°
orbit number at epoch: 6718

The dashed part of the orbit path shows where the satellite is in the earth's shadow,  

Developed and maintained by Chris Peat, Heavens-Above GmbH. Please read the updated FAQ before sending e-mail. Imprint. DLR